Weather History for Adrian, MI

Change the Weather History Date:

Thursday, May 15, 2014

  Actual Average Record
Temperature  
Mean Temperature 52 °F -  
Max Temperature 60 °F 70 °F 91 °F (1962)
Min Temperature 43 °F 45 °F 34 °F (1964)
Degree Days  
Heating Degree Days 14    
Growing Degree Days 2 (Base 50)    
Moisture  
Dew Point 50 °F    
Average Humidity 89    
Maximum Humidity 100    
Minimum Humidity 71    
Precipitation  
Precipitation 0.30 in - - ()
Sea Level Pressure  
Sea Level Pressure 29.82 in    
Wind  
Wind Speed 10 mph (West)    
Max Wind Speed 17 mph    
Max Gust Speed 25 mph    
Visibility 7 miles    
Events Rain    
Averages and records for this station are not official NWS values.
T = Trace of Precipitation, MM = Missing Value Source: NWS Daily Summary

Daily Weather History Graph

Daily Weather History Graph

Search for Another Location

Airport:

Trip Planner

Search our weather history database for the weather conditions in past years. The results will help you decide how hot, cold, wet, or windy it might be!

Date:

Astronomy

May. 15, 2014 Rise Set
Actual Time 6:16 AM EDT 8:49 PM EDT
Civil Twilight 5:44 AM EDT 9:21 PM EDT
Nautical Twilight 5:04 AM EDT 10:01 PM EDT
Astronomical Twilight 4:20 AM EDT 10:46 PM EDT
Moon 9:56 PM EDT (5/15) 7:02 AM EDT (5/15)
Length of Visible Light 15h 37m
Length of Day
14h 33m
Full, 99% of the Moon is Illuminated
May 15
Full
May 21
Last Quarter
May 28
New
Jun 5
First Quarter
Jun 13
Full

Hourly Weather History & Observations

Time (EDT) Temp. Windchill Dew Point Humidity Pressure Visibility Wind Dir Wind Speed Gust Speed Precip Events Conditions
12:09 AM 52.0 °F - 50.0 °F 93% 29.94 in 6.0 mi East 10.4 mph - 0.01 in Rain Light Rain
12:30 AM 51.1 °F - 50.0 °F 96% 29.91 in 7.0 mi NE 9.2 mph - 0.01 in Rain Light Rain
12:38 AM 50.0 °F - 48.9 °F 96% 29.90 in 6.0 mi ENE 13.8 mph - 0.02 in Rain Light Rain
12:45 AM 50.0 °F - 48.9 °F 96% 29.89 in 9.0 mi NE 9.2 mph - 0.02 in Rain Light Rain
12:53 AM 50.0 °F - 48.9 °F 96% 29.92 in 10.0 mi NE 11.5 mph 16.1 mph 0.02 in Rain Light Rain
1:19 AM 50.0 °F - 48.0 °F 93% 29.88 in 5.0 mi NE 9.2 mph - 0.01 in Rain Light Rain
1:43 AM 50.0 °F - 48.9 °F 96% 29.88 in 8.0 mi East 6.9 mph - 0.01 in Rain Light Rain
1:53 AM 50.0 °F - 48.9 °F 96% 29.88 in 7.0 mi East 12.7 mph 16.1 mph 0.01 in Rain Light Rain
2:53 AM 50.0 °F - 48.0 °F 93% 29.85 in 8.0 mi East 11.5 mph - 0.00 in Rain Light Rain
3:38 AM 50.0 °F - 48.9 °F 96% 29.80 in 6.0 mi East 9.2 mph - 0.00 in Rain Light Rain
3:53 AM 50.0 °F - 48.9 °F 96% 29.80 in 6.0 mi East 10.4 mph - 0.01 in Rain Light Rain
4:53 AM 51.1 °F - 50.0 °F 96% 29.77 in 6.0 mi East 9.2 mph - 0.00 in Rain Light Rain
5:53 AM 52.0 °F - 51.1 °F 97% 29.74 in 3.0 mi ESE 5.8 mph - 0.00 in Rain Light Rain
6:32 AM 53.1 °F - 53.1 °F 100% 29.72 in 2.0 mi ESE 8.1 mph - 0.04 in Rain Rain
6:53 AM 55.0 °F - 54.0 °F 96% 29.71 in 5.0 mi SE 8.1 mph - 0.05 in Rain Light Rain
7:35 AM 57.9 °F - 57.0 °F 97% 29.69 in 4.0 mi SSE 6.9 mph - 0.01 in Rain Light Rain
7:44 AM 57.9 °F - 57.0 °F 97% 29.69 in 3.0 mi SSE 9.2 mph - 0.01 in Rain Light Rain
7:51 AM 59.0 °F - 57.2 °F 94% 29.69 in 2.5 mi WSW 4.6 mph - 0.01 in Rain Light Rain
7:53 AM 59.0 °F - 57.9 °F 96% 29.70 in 2.5 mi SSW 5.8 mph - 0.02 in Rain Light Rain
7:57 AM 59.0 °F - 57.9 °F 96% 29.69 in 2.5 mi South 9.2 mph - 0.00 in Rain Light Rain
8:05 AM 60.1 °F - 59.0 °F 96% 29.69 in 3.0 mi SSW 9.2 mph - 0.01 in Rain Light Rain
8:08 AM 60.1 °F - 59.0 °F 96% 29.70 in 2.5 mi SW 8.1 mph - 0.01 in Rain Rain
8:15 AM 60.1 °F - 59.0 °F 96% 29.70 in 1.8 mi SW 11.5 mph - 0.04 in Rain Rain
8:19 AM 60.1 °F - 59.0 °F 96% 29.70 in 1.5 mi WSW 8.1 mph - 0.05 in Rain Rain
8:43 AM 60.1 °F - 59.0 °F 96% 29.70 in 2.0 mi SW 9.2 mph - 0.15 in Rain Light Rain
8:53 AM 60.1 °F - 59.0 °F 96% 29.71 in 3.0 mi SW 10.4 mph - 0.16 in Rain Rain
8:59 AM 60.1 °F - 59.0 °F 96% 29.71 in 3.0 mi SW 12.7 mph 17.3 mph 0.01 in Rain Rain
9:07 AM 59.0 °F - 57.9 °F 96% 29.71 in 4.0 mi WSW 11.5 mph - 0.02 in Rain Light Rain
9:29 AM 59.0 °F - 57.0 °F 93% 29.71 in 10.0 mi SW 13.8 mph - 0.03 in   Overcast
9:53 AM 55.0 °F - 55.0 °F 100% 29.73 in 10.0 mi Variable 4.6 mph 17.3 mph 0.03 in   Overcast
10:49 AM 53.6 °F - 53.6 °F 100% 29.73 in 6.0 mi Variable 6.9 mph - N/A   Overcast
10:53 AM 55.0 °F - 53.1 °F 93% 29.74 in 8.0 mi WSW 12.7 mph 21.9 mph N/A   Overcast
11:04 AM 55.0 °F - 53.1 °F 93% 29.73 in 10.0 mi WNW 10.4 mph - N/A   Overcast
11:15 AM 54.0 °F - 52.0 °F 93% 29.74 in 6.0 mi West 9.2 mph - N/A   Overcast
11:45 AM 55.0 °F - 51.1 °F 86% 29.75 in 10.0 mi West 13.8 mph 19.6 mph N/A   Overcast
11:53 AM 55.0 °F - 50.0 °F 83% 29.76 in 10.0 mi West 12.7 mph 23.0 mph N/A   Overcast
12:53 PM 55.0 °F - 48.9 °F 80% 29.79 in 10.0 mi West 13.8 mph 23.0 mph N/A   Overcast
1:19 PM 53.1 °F - 48.9 °F 86% 29.79 in 10.0 mi West 17.3 mph 25.3 mph N/A   Overcast
1:53 PM 53.1 °F - 48.9 °F 86% 29.81 in 10.0 mi West 11.5 mph - 0.00 in Rain Light Rain
2:29 PM 54.0 °F - 48.9 °F 83% 29.82 in 10.0 mi West 10.4 mph - 0.00 in   Overcast
3:53 PM 53.1 °F - 46.0 °F 77% 29.86 in 10.0 mi WNW 15.0 mph 23.0 mph N/A   Overcast
4:15 PM 52.0 °F - 45.0 °F 77% 29.85 in 10.0 mi NW 12.7 mph - N/A   Overcast
4:24 PM 53.1 °F - 45.0 °F 74% 29.86 in 10.0 mi NW 17.3 mph 23.0 mph N/A   Overcast
4:53 PM 52.0 °F - 43.0 °F 71% 29.88 in 10.0 mi WNW 16.1 mph 25.3 mph N/A   Overcast
5:00 PM 52.0 °F - 44.1 °F 74% 29.87 in 10.0 mi WNW 13.8 mph - N/A   Overcast
5:53 PM 48.9 °F - 42.1 °F 77% 29.92 in 10.0 mi WNW 12.7 mph - N/A   Overcast
6:53 PM 48.0 °F - 39.0 °F 71% 29.95 in 10.0 mi WNW 12.7 mph - N/A   Overcast
7:53 PM 46.0 °F 39.9 °F 37.9 °F 73% 29.98 in 10.0 mi WNW 13.8 mph - N/A   Overcast
8:53 PM 45.0 °F 38.5 °F 37.0 °F 74% 30.01 in 10.0 mi NW 13.8 mph 20.7 mph N/A   Overcast
9:33 PM 44.1 °F 38.6 °F 36.0 °F 73% 30.01 in 10.0 mi NW 10.4 mph - N/A   Scattered Clouds
9:53 PM 43.0 °F 37.7 °F 36.0 °F 76% 30.03 in 10.0 mi NW 9.2 mph - N/A   Scattered Clouds
10:53 PM 43.0 °F 40.3 °F 37.0 °F 80% 30.04 in 10.0 mi West 4.6 mph - N/A   Overcast
11:21 PM 43.0 °F 39.5 °F 37.0 °F 80% 30.02 in 10.0 mi West 5.8 mph - N/A   Overcast
11:53 PM 43.0 °F 40.3 °F 37.9 °F 82% 30.03 in 10.0 mi West 4.6 mph - N/A   Overcast